Weather History for Joliet, IL

Change the Weather History Date:

Thursday, May 10, 2012

  Actual Average (KLOT) Record (KLOT)
Temperature  
Mean Temperature 52 °F 59 °F  
Max Temperature 67 °F 69 °F 91 °F (2011)
Min Temperature 37 °F 48 °F 35 °F (1997)
Degree Days  
Heating Degree Days 13 7  
Month to date heating degree days 85  
Since 1 July heating degree days 6079  
Cooling Degree Days 0 1  
Month to date cooling degree days 8  
Year to date cooling degree days 13  
Growing Degree Days 2 (Base 50)    
Moisture  
Dew Point 37 °F    
Average Humidity 60    
Maximum Humidity 99    
Minimum Humidity 27    
Precipitation  
Precipitation 0.00 in 0.13 in 0.54 in (2003)
Month to date precipitation 1.40  
Year to date precipitation 11.84  
Sea Level Pressure  
Sea Level Pressure 29.99 in    
Wind  
Wind Speed 2 mph (NNE)    
Max Wind Speed 12 mph    
Max Gust Speed 16 mph    
Visibility 8 miles    
Events Fog    
T = Trace of Precipitation, MM = Missing Value Source: NWS Daily Summary

Daily Weather History Graph

Daily Weather History Graph

Search for Another Location

Airport:

Trip Planner

Search our weather history database for the weather conditions in past years. The results will help you decide how hot, cold, wet, or windy it might be!

Date:

Astronomy

May. 10, 2012 Rise Set
Actual Time 5:38 AM CDT 8:00 PM CDT
Civil Twilight 5:07 AM CDT 8:31 PM CDT
Nautical Twilight 4:28 AM CDT 9:10 PM CDT
Astronomical Twilight 3:45 AM CDT 9:53 PM CDT
Moon No Moon Rise 10:02 AM CDT (5/10)
Length of Visible Light 15h 24m
Length of Day
14h 22m
Waning Gibbous, 73% of the Moon is Illuminated
May 10
Waning Gibbous
May 12
Last Quarter
May 20
New
May 28
First Quarter
Jun 4
Full

Hourly Weather History & Observations

Time (CDT) Temp. Windchill Dew Point Humidity Pressure Visibility Wind Dir Wind Speed Gust Speed Precip Events Conditions
12:15 AM 44.4 °F - 41.5 °F 90% 29.95 in 10.0 mi Calm Calm - N/A   Clear
12:35 AM 43.2 °F - 40.5 °F 90% 29.95 in 10.0 mi Calm Calm - N/A   Clear
12:55 AM 41.4 °F - 40.5 °F 97% 29.95 in 10.0 mi Calm Calm - N/A   Clear
1:15 AM 41.7 °F - 40.1 °F 94% 29.95 in 10.0 mi Calm Calm - N/A   Clear
1:35 AM 41.2 °F - 39.9 °F 95% 29.94 in 10.0 mi Calm Calm - N/A   Clear
1:55 AM 40.5 °F - 39.6 °F 97% 29.94 in 0.8 mi Calm Calm - N/A   Mist
2:15 AM 40.1 °F - 39.4 °F 97% 29.94 in 7.0 mi Calm Calm - N/A   Clear
2:35 AM 39.4 °F - 38.3 °F 96% 29.94 in 7.0 mi Calm Calm - N/A   Clear
2:55 AM 39.4 °F - 39.0 °F 99% 29.94 in 5.0 mi Calm Calm - N/A   Clear
3:15 AM 39.4 °F - 39.2 °F 99% 29.94 in 0.5 mi Calm Calm - N/A Fog Fog
3:35 AM 38.8 °F - 38.3 °F 98% 29.94 in 7.0 mi Calm Calm - N/A   Clear
3:55 AM 39.2 °F - 38.7 °F 98% 29.95 in 5.0 mi Calm Calm - N/A   Clear
4:15 AM 38.5 °F - 38.1 °F 99% 29.95 in 0.8 mi Calm Calm - N/A   Mist
4:35 AM 38.8 °F - 38.5 °F 99% 29.95 in 2.0 mi Calm Calm - N/A   Clear
4:55 AM 38.7 °F - 38.5 °F 99% 29.95 in 0.2 mi Calm Calm - N/A Fog Fog
5:15 AM 37.6 °F - 37.0 °F 98% 29.96 in 5.0 mi Calm Calm - N/A   Clear
5:35 AM 37.9 °F - 37.2 °F 97% 29.97 in 4.0 mi Calm Calm - N/A   Clear
5:55 AM 41.5 °F 39.6 °F 41.4 °F 99% 29.97 in 3.0 mi SW 3.5 mph - N/A   Clear
6:15 AM 40.3 °F - 39.6 °F 97% 29.97 in 3.0 mi Calm Calm - N/A   Clear
6:35 AM 45.3 °F - 43.7 °F 94% 29.98 in 4.0 mi Calm Calm - N/A   Clear
6:55 AM 47.5 °F - 44.8 °F 90% 29.99 in 5.0 mi Calm Calm - N/A   Clear
7:15 AM 48.7 °F - 45.5 °F 89% 29.99 in 5.0 mi West 4.6 mph - N/A   Clear
7:35 AM 50.9 °F - 46.6 °F 85% 30.00 in 5.0 mi WNW 3.5 mph - N/A   Clear
7:55 AM 52.9 °F - 46.2 °F 78% 30.00 in 7.0 mi NW 3.5 mph - N/A   Clear
8:15 AM 53.8 °F - 44.2 °F 70% 30.00 in 10.0 mi West 4.6 mph - N/A   Clear
8:35 AM 54.9 °F - 43.3 °F 65% 30.01 in 10.0 mi WSW 4.6 mph - N/A   Clear
8:55 AM 55.4 °F - 43.5 °F 64% 30.01 in 10.0 mi NW 4.6 mph - N/A   Clear
9:15 AM 56.3 °F - 43.3 °F 62% 30.02 in 10.0 mi West 3.5 mph - N/A   Clear
9:35 AM 57.7 °F - 45.0 °F 62% 30.02 in 10.0 mi NW 4.6 mph - N/A   Clear
9:55 AM 58.5 °F - 44.8 °F 60% 30.02 in 10.0 mi NW 5.8 mph - N/A   Clear
10:15 AM 59.5 °F - 45.3 °F 59% 30.02 in 10.0 mi NNW 4.6 mph - N/A   Clear
10:35 AM 59.9 °F - 44.6 °F 57% 30.02 in 10.0 mi Calm Calm - N/A   Clear
10:55 AM 60.8 °F - 43.9 °F 54% 30.02 in 10.0 mi Calm Calm - N/A   Clear
11:15 AM 61.9 °F - 41.2 °F 47% 30.02 in 10.0 mi WNW 3.5 mph - N/A   Clear
11:35 AM 62.2 °F - 40.6 °F 45% 30.01 in 10.0 mi North 4.6 mph - N/A   Clear
11:55 AM 63.3 °F - 41.7 °F 45% 30.01 in 10.0 mi NE 4.6 mph - N/A   Clear
12:15 PM 63.5 °F - 39.4 °F 41% 30.01 in 10.0 mi Calm Calm - N/A   Clear
12:35 PM 64.8 °F - 38.1 °F 37% 30.00 in 10.0 mi North 4.6 mph - N/A   Clear
12:55 PM 65.5 °F - 36.5 °F 34% 30.00 in 10.0 mi North 8.1 mph - N/A   Clear
1:15 PM 65.3 °F - 37.4 °F 36% 30.00 in 10.0 mi WNW 3.5 mph - N/A   Clear
1:35 PM 65.7 °F - 34.0 °F 31% 30.00 in 10.0 mi NNW 3.5 mph - N/A   Clear
1:55 PM 65.5 °F - 33.6 °F 31% 29.99 in 10.0 mi NNW 6.9 mph - N/A   Clear
2:15 PM 66.2 °F - 33.4 °F 30% 29.99 in 10.0 mi NW 4.6 mph - N/A   Clear
2:35 PM 66.2 °F - 32.0 °F 28% 29.99 in 10.0 mi WNW 3.5 mph - N/A   Clear
2:55 PM 66.6 °F - 31.5 °F 27% 29.99 in 10.0 mi North 4.6 mph - N/A   Clear
3:15 PM 66.7 °F - 31.8 °F 27% 29.99 in 10.0 mi NNE 4.6 mph 16.1 mph N/A   Clear
3:35 PM 66.9 °F - 32.7 °F 28% 29.99 in 10.0 mi ENE 5.8 mph - N/A   Clear
3:55 PM 67.5 °F - 33.8 °F 29% 29.99 in 10.0 mi North 8.1 mph - N/A   Clear
4:15 PM 67.1 °F - 33.3 °F 29% 29.99 in 10.0 mi East 6.9 mph - N/A   Clear
4:35 PM 67.1 °F - 32.2 °F 27% 29.99 in 10.0 mi NNE 6.9 mph - N/A   Clear
4:55 PM 66.6 °F - 31.3 °F 27% 29.98 in 10.0 mi NNE 8.1 mph - N/A   Clear
5:15 PM 66.4 °F - 34.3 °F 31% 29.99 in 10.0 mi East 5.8 mph - N/A   Clear
5:35 PM 65.7 °F - 33.3 °F 30% 29.99 in 10.0 mi ENE 11.5 mph - N/A   Clear
5:55 PM 64.9 °F - 33.3 °F 31% 29.99 in 10.0 mi ENE 5.8 mph - N/A   Clear
6:15 PM 64.0 °F - 32.0 °F 30% 29.99 in 10.0 mi NE 10.4 mph - N/A   Clear
6:35 PM 63.5 °F - 31.5 °F 30% 29.99 in 10.0 mi ENE 9.2 mph - N/A   Clear
6:55 PM 62.1 °F - 30.6 °F 31% 29.99 in 10.0 mi ENE 9.2 mph - N/A   Clear
7:15 PM 60.6 °F - 30.0 °F 31% 29.99 in 10.0 mi ENE 4.6 mph - N/A   Clear
7:35 PM 58.8 °F - 27.5 °F 30% 30.00 in 10.0 mi ENE 6.9 mph - N/A   Clear
7:55 PM 55.8 °F - 30.9 °F 39% 30.01 in 10.0 mi East 4.6 mph - N/A   Clear
8:15 PM 56.3 °F - 27.1 °F 33% 30.01 in 10.0 mi ENE 5.8 mph - N/A   Clear
8:35 PM 53.4 °F - 30.0 °F 41% 30.01 in 10.0 mi ENE 5.8 mph - N/A   Clear
8:55 PM 52.3 °F - 31.6 °F 45% 30.02 in 10.0 mi East 3.5 mph - N/A   Clear
9:15 PM 52.5 °F - 32.2 °F 46% 30.02 in 10.0 mi ENE 3.5 mph - N/A   Clear
9:35 PM 48.9 °F - 33.6 °F 56% 30.03 in 10.0 mi East 4.6 mph - N/A   Clear
9:55 PM 49.6 °F - 32.5 °F 52% 30.03 in 10.0 mi ENE 3.5 mph - N/A   Clear
10:15 PM 48.7 °F - 32.2 °F 53% 30.04 in 10.0 mi ENE 5.8 mph - N/A   Clear
10:35 PM 49.3 °F - 32.0 °F 51% 30.04 in 10.0 mi East 3.5 mph - N/A   Clear
10:55 PM 50.0 °F - 32.0 °F 50% 30.04 in 10.0 mi East 3.5 mph - N/A   Clear
11:15 PM 48.7 °F - 33.8 °F 56% 30.04 in 10.0 mi East 4.6 mph - N/A   Clear
11:35 PM 46.6 °F - 33.1 °F 59% 30.04 in 10.0 mi East 4.6 mph - N/A   Clear
11:55 PM 46.6 °F - 33.8 °F 61% 30.04 in 10.0 mi Calm Calm - N/A   Clear